Date,TemperatureHighF,TemperatureAvgF,TemperatureLowF,DewpointHighF,DewpointAvgF,DewpointLowF,HumidityHigh,HumidityAvg,HumidityLow,PressureMaxIn,PressureMinIn,WindSpeedMaxMPH,WindSpeedAvgMPH,GustSpeedMaxMPH,PrecipitationSumIn
2014-1-1,35.0,27.7,19.1,24.5,20.0,13.3,84,73,61,30.44,30.23,3,0,9,0.00
2014-1-2,30.4,26.6,18.2,25.3,22.5,15.8,93,85,75,30.22,29.68,3,2,10,0.00
2014-1-3,17.9,12.5,0.7,15.5,5.3,-3.3,91,74,50,30.51,29.66,10,4,18,0.00
2014-1-4,27.7,9.6,-3.8,14.2,3.3,-6.9,91,77,49,30.57,30.32,5,1,9,0.01
2014-1-5,34.1,23.1,4.1,33.6,21.5,1.6,100,93,89,30.33,29.74,2,0,9,0.32
2014-1-6,57.1,37.8,10.3,56.8,30.8,-7.5,99,77,42,29.92,29.42,12,6,19,0.30
2014-1-7,10.1,6.2,1.3,-2.7,-8.3,-13.9,60,51,45,30.45,29.92,12,7,21,0.00
2014-1-8,22.2,14.2,6.5,13.1,3.0,-3.0,77,61,41,30.62,30.46,6,2,14,0.00
2014-1-9,32.1,22.4,16.0,19.9,15.3,12.1,89,75,49,30.70,30.53,2,0,6,0.00
2014-1-10,32.9,29.6,23.0,31.9,27.2,19.4,97,91,77,30.61,30.20,1,0,3,0.28
2014-1-11,60.8,47.2,32.7,60.2,46.5,31.9,100,98,92,30.20,29.37,7,2,15,0.73
2014-1-12,48.8,39.3,26.9,46.3,31.6,25.0,93,74,61,30.13,29.49,9,4,15,0.01
2014-1-13,55.3,38.1,23.7,38.5,31.7,22.5,97,80,50,30.15,29.89,4,1,8,0.00
2014-1-14,47.1,43.2,34.9,44.8,41.2,33.8,98,93,72,29.90,29.71,3,0,5,0.31
2014-1-15,46.6,38.4,30.6,44.8,37.5,30.1,99,97,91,30.01,29.90,3,1,7,0.01
2014-1-16,38.6,32.9,23.2,34.4,28.8,21.7,94,85,66,30.00,29.88,5,1,11,0.01
2014-1-17,42.5,29.5,20.0,32.2,25.5,18.6,97,86,59,30.01,29.87,3,0,6,0.00
2014-1-18,35.9,29.7,21.1,31.9,23.4,12.2,96,78,60,29.96,29.75,8,4,13,0.03
2014-1-19,37.5,28.5,19.0,25.9,18.9,12.7,80,67,58,29.92,29.71,9,4,11,0.00
2014-1-20,45.8,36.5,28.9,30.7,27.5,23.5,87,71,51,29.91,29.63,8,3,17,0.00
2014-1-21,33.5,20.5,11.6,26.1,15.4,7.4,90,81,61,30.00,29.85,5,2,11,0.00
2014-1-22,15.7,8.6,2.2,7.2,-2.4,-7.9,82,61,46,30.06,29.85,9,4,17,0.00
2014-1-23,21.0,9.4,-3.1,6.3,1.4,-6.7,99,71,51,30.36,30.06,7,2,13,0.00
2014-1-24,18.7,10.9,-0.4,5.9,1.4,-3.6,89,66,47,30.47,30.10,8,3,17,0.00
2014-1-25,24.0,18.0,5.2,20.3,10.7,2.2,92,74,55,30.10,29.49,5,2,11,0.00
2014-1-26,24.4,19.3,6.2,18.7,10.2,0.2,96,68,46,29.97,29.57,7,2,10,0.00
2014-1-27,41.3,26.2,18.2,30.4,15.5,1.5,87,66,40,30.15,29.65,10,3,15,0.23
2014-1-28,18.9,13.5,10.0,3.8,-1.6,-3.9,68,51,43,30.44,30.15,8,3,11,0.00
2014-1-29,20.9,12.2,2.9,7.7,1.3,-4.7,86,64,38,30.36,30.19,7,3,13,0.00
2014-1-30,28.5,11.5,-2.0,10.1,2.6,-5.2,89,70,39,30.52,30.23,4,1,6,0.00
2014-1-31,41.5,25.2,10.3,26.0,16.9,6.8,88,73,38,30.27,30.13,6,1,8,0.04
2014-2-1,46.2,32.7,25.2,27.8,24.9,22.4,92,75,43,30.35,30.03,5,1,7,0.01
2014-2-2,49.7,33.9,22.8,37.6,29.4,21.3,96,85,56,30.11,29.96,4,0,5,0.00
2014-2-3,36.2,32.1,22.5,34.6,30.7,20.6,96,95,93,30.35,30.09,2,0,3,0.19
2014-2-4,32.2,23.3,13.2,26.7,20.8,11.3,95,90,76,30.50,30.23,3,0,5,0.02
2014-2-5,33.3,32.0,28.1,32.4,30.7,23.3,97,95,79,30.25,29.68,7,1,12,0.08
2014-2-6,30.2,23.2,18.3,23.4,17.7,14.3,94,80,64,30.35,30.06,8,3,12,0.01
2014-2-7,32.5,22.6,13.6,21.7,17.5,11.7,95,82,56,30.37,30.28,6,2,10,0.00
2014-2-8,27.0,19.8,11.8,18.7,13.3,5.9,92,77,45,30.38,30.19,4,1,6,0.00
2014-2-9,28.3,22.3,13.0,23.2,16.5,10.9,100,79,55,30.23,30.04,3,1,5,0.00
2014-2-10,28.6,20.3,6.0,20.6,12.5,3.5,94,73,47,30.33,30.05,7,3,14,0.00
2014-2-11,26.1,11.7,-0.8,10.9,4.0,-3.7,99,73,44,30.52,30.32,8,2,15,0.00
2014-2-12,24.0,14.0,-2.1,17.3,6.9,-5.0,91,74,53,30.60,30.27,3,1,6,0.00
2014-2-13,34.0,29.3,19.8,32.7,27.9,17.3,96,94,90,30.27,29.13,7,4,13,0.00
2014-2-14,42.0,32.9,24.7,30.2,27.2,23.0,97,81,52,29.80,29.16,11,5,17,0.04
2014-2-15,35.3,30.6,25.7,31.6,26.6,15.4,95,85,64,29.86,29.61,9,2,13,0.04
2014-2-16,27.4,22.7,18.0,15.4,12.3,9.3,77,64,50,30.19,29.86,8,4,13,0.00
2014-2-17,31.2,20.3,9.2,15.6,9.7,4.5,87,65,38,30.45,30.19,7,2,11,0.00
2014-2-18,39.7,28.8,19.6,32.1,24.5,14.0,94,84,69,30.31,30.00,7,1,15,0.22
2014-2-19,43.8,31.6,20.5,39.0,29.0,18.8,97,90,67,30.13,29.72,7,1,11,0.34
2014-2-20,48.5,36.4,22.7,33.1,28.6,21.2,96,75,44,30.30,30.01,5,1,7,0.00
2014-2-21,49.4,36.3,27.2,49.1,35.3,26.5,99,96,86,30.01,29.64,8,1,11,0.30
2014-2-22,53.9,34.8,21.8,36.5,25.9,20.6,98,76,30,30.10,29.96,10,2,17,0.01
2014-2-23,50.9,36.6,25.1,36.0,29.7,23.9,97,79,45,30.04,29.90,6,1,9,0.03
2014-2-24,37.5,33.2,23.8,33.3,19.4,11.6,89,58,42,30.13,29.88,9,4,18,0.00
2014-2-25,31.4,24.9,16.9,21.0,16.1,13.0,88,70,50,30.13,29.99,8,3,16,0.00
2014-2-26,30.0,22.2,9.2,24.4,13.2,0.8,92,71,35,30.01,29.88,9,2,16,0.03
2014-2-27,30.5,17.7,3.4,17.2,5.6,-9.6,91,62,35,30.18,29.68,12,4,23,0.00
2014-2-28,22.5,12.9,5.0,5.5,-2.7,-11.1,81,51,32,30.46,30.19,6,2,11,0.00
2014-3-1,36.4,22.6,6.1,25.1,12.4,3.0,89,68,38,30.45,30.19,4,1,8,0.00
2014-3-2,40.7,32.8,25.8,32.3,27.1,21.5,94,80,55,30.18,30.02,3,0,5,0.05
2014-3-3,30.5,19.6,10.9,21.8,9.0,2.6,84,64,49,30.38,30.04,6,2,11,0.00
2014-3-4,28.8,18.3,8.2,16.2,6.5,0.3,78,61,36,30.45,30.28,3,1,5,0.01
2014-3-5,40.4,27.5,15.7,18.3,13.7,8.3,90,60,27,30.47,30.23,5,1,10,0.01
2014-3-6,29.8,23.2,16.6,17.4,9.8,2.9,78,57,40,30.65,30.47,4,2,8,0.00
2014-3-7,37.8,30.5,21.9,28.9,23.3,15.9,80,74,68,30.48,29.94,5,1,8,0.00
2014-3-8,54.7,41.1,29.4,35.1,31.6,27.6,94,71,43,29.95,29.84,8,2,12,0.00
2014-3-9,42.2,37.7,33.6,35.0,25.6,17.4,95,64,39,30.07,29.92,7,3,13,0.05
2014-3-10,52.1,40.3,31.1,34.3,27.4,20.6,90,61,47,30.02,29.64,6,2,11,0.00
2014-3-11,62.0,41.7,28.8,41.9,34.2,27.0,95,78,44,29.71,29.61,5,1,8,0.00
2014-3-12,63.6,45.8,27.9,54.0,40.8,20.4,96,84,54,29.70,29.03,15,2,21,0.27
2014-3-13,32.8,24.1,18.1,19.1,6.5,-0.2,72,48,30,30.14,29.26,15,8,27,0.00
2014-3-14,25.5,19.8,16.0,12.8,8.0,2.6,82,62,38,30.23,30.12,5,1,5,0.00
2014-3-15,58.0,49.2,41.8,35.7,29.4,25.3,65,47,33,30.04,29.79,12,4,18,0.00
2014-3-16,44.3,34.1,29.5,27.3,15.8,8.7,75,48,34,30.22,30.03,6,3,11,0.00
2014-3-17,32.5,28.2,21.5,18.8,13.4,6.9,88,54,39,30.16,30.05,4,1,9,0.03
2014-3-18,43.6,33.7,26.8,25.2,16.6,11.1,76,50,27,30.31,30.13,7,2,13,0.00
2014-3-19,44.4,36.2,25.9,40.1,32.8,19.3,100,88,74,30.31,29.85,6,2,8,0.67
2014-3-20,52.2,44.0,39.1,42.5,32.7,25.5,98,68,40,29.97,29.78,11,4,18,0.01
2014-3-21,51.9,39.2,27.1,28.3,25.5,22.4,91,61,32,30.07,29.96,8,3,17,0.00
2014-3-22,64.2,45.9,28.3,39.9,31.4,24.2,89,61,28,30.06,29.80,10,3,15,0.00
2014-3-23,48.1,37.5,27.3,30.1,23.0,11.9,83,57,39,30.17,29.99,5,2,9,0.00
2014-3-24,33.8,25.9,19.4,14.9,9.1,5.9,73,50,33,30.31,30.15,6,3,10,0.00
2014-3-25,38.0,27.2,15.3,28.0,19.6,11.4,90,74,47,30.19,29.90,5,1,10,0.00
2014-3-26,34.0,30.2,25.6,26.7,15.1,5.7,90,57,32,30.28,29.82,12,6,20,0.00
2014-3-27,43.3,31.1,17.1,23.3,12.6,4.6,74,47,29,30.46,30.26,5,2,9,0.00
2014-3-28,61.3,44.7,27.4,52.5,40.0,22.6,94,84,71,30.30,29.99,8,1,13,0.08
2014-3-29,51.7,45.8,39.1,49.0,43.7,37.5,98,93,80,30.16,29.65,6,2,16,1.47
2014-3-30,46.0,43.0,36.9,45.5,41.7,34.5,98,95,90,29.74,29.49,6,3,11,1.06
2014-3-31,53.7,43.2,35.1,39.1,34.4,32.1,94,73,47,30.11,29.71,9,4,15,0.05
2014-4-1,59.2,44.4,28.4,40.1,33.5,26.7,96,69,40,30.17,29.99,4,1,6,0.00
2014-4-2,58.9,44.9,35.9,49.2,40.9,34.1,96,87,61,30.17,30.05,3,0,4,0.08
2014-4-3,63.1,52.0,40.2,47.5,36.5,28.2,96,61,28,30.16,29.98,3,1,7,0.11
2014-4-4,45.1,42.4,40.8,43.5,40.7,39.6,97,94,89,30.07,29.76,7,3,13,0.09
2014-4-5,51.9,45.0,37.4,42.5,35.3,28.1,98,71,49,30.13,29.75,13,5,17,0.00
2014-4-6,56.9,41.4,26.6,35.2,27.3,22.2,92,62,27,30.25,30.11,6,1,8,0.00
2014-4-7,49.4,40.8,30.6,45.8,37.7,28.9,97,89,65,30.23,29.68,7,2,19,0.30
2014-4-8,61.6,54.1,45.5,56.0,46.0,35.9,99,77,50,29.75,29.47,10,4,19,0.06
2014-4-9,60.6,47.8,32.3,40.1,33.4,28.7,97,62,31,30.06,29.67,7,2,13,0.00
2014-4-10,64.7,49.1,28.8,38.9,33.4,27.0,96,60,34,30.24,30.03,7,2,14,0.00
2014-4-11,75.3,60.3,45.4,53.8,45.4,35.7,94,61,33,30.06,29.94,7,2,12,0.01
2014-4-12,70.9,57.7,43.3,52.0,42.9,36.1,98,64,28,30.25,30.03,5,1,8,0.00
2014-4-13,80.1,63.3,43.7,57.9,51.1,39.6,89,67,42,30.20,29.98,7,2,13,0.00
2014-4-14,76.0,68.1,62.2,60.0,57.2,54.2,84,69,48,30.03,29.83,7,3,18,0.00
2014-4-15,66.8,57.0,34.4,64.7,54.0,31.9,97,90,74,29.99,29.51,8,4,14,1.48
2014-4-16,45.6,36.7,28.6,32.0,22.9,14.8,89,59,38,30.58,29.95,8,4,14,0.00
2014-4-17,50.4,39.3,29.5,34.8,28.4,22.5,88,66,42,30.73,30.57,6,2,11,0.00
2014-4-18,51.1,42.7,34.3,38.0,33.2,29.6,88,70,49,30.64,30.29,4,1,8,0.00
2014-4-19,65.3,50.6,34.3,42.1,34.6,27.0,96,61,25,30.34,30.25,5,1,7,0.00
2014-4-20,58.5,49.4,36.2,36.4,32.5,27.8,80,53,37,30.49,30.34,7,2,12,0.00
2014-4-21,68.4,48.6,28.9,41.6,30.8,22.6,96,59,20,30.36,29.90,4,1,7,0.00
2014-4-22,72.2,55.8,39.8,56.2,47.6,38.2,100,76,45,29.91,29.56,8,2,11,0.00
2014-4-25,66.3,50.2,31.7,45.6,32.2,24.9,93,56,23,30.07,29.77,8,2,11,0.15
2014-4-26,69.8,55.0,44.7,54.1,46.1,43.4,97,75,42,29.91,29.70,8,2,14,0.37
2014-4-27,59.1,51.3,44.0,45.8,37.2,34.7,89,59,44,30.14,29.90,7,3,12,0.00
2014-4-28,62.2,50.1,33.5,46.2,37.7,31.4,96,66,40,30.16,30.02,4,1,6,0.00
2014-4-29,51.1,45.9,41.6,44.3,41.2,39.9,95,84,71,30.37,30.09,9,5,20,0.25
2014-4-30,51.2,45.2,41.1,50.7,44.3,40.0,98,97,94,30.36,29.92,7,4,17,4.49
2014-5-1,75.6,63.9,51.4,62.6,57.3,49.5,99,82,43,29.94,29.70,5,2,10,0.22
2014-5-2,64.6,57.1,46.1,50.6,44.4,40.2,93,65,43,29.88,29.75,7,2,12,0.00
2014-5-3,67.7,54.6,43.2,51.6,44.9,41.2,95,73,42,29.91,29.75,8,1,12,0.01
2014-5-4,61.9,53.5,44.1,48.2,41.2,31.7,100,67,33,29.87,29.73,10,3,17,0.00
2014-5-5,65.9,55.0,43.9,43.1,36.0,26.0,78,52,24,29.97,29.87,6,3,11,0.00
2014-5-6,69.3,54.3,39.1,41.3,37.4,34.3,91,57,29,30.09,29.91,6,1,10,0.00
2014-5-7,67.0,54.5,38.9,49.8,39.5,33.0,91,61,32,30.26,30.09,4,1,9,0.00
2014-5-8,64.5,56.7,51.7,58.1,53.5,47.8,97,89,79,30.19,30.08,3,1,8,0.07
2014-5-9,68.7,60.7,54.8,63.1,58.3,53.5,98,92,81,30.18,29.97,4,1,6,0.00
2014-5-10,81.3,67.4,59.3,66.1,61.4,56.7,99,83,45,29.97,29.87,9,2,11,0.32
2014-5-11,77.5,66.6,55.0,60.2,53.7,45.0,99,69,32,30.11,29.90,4,1,9,0.01
2014-5-12,84.3,67.9,49.8,65.2,57.6,48.4,97,73,44,30.14,30.03,3,0,8,0.00
2014-5-13,71.2,62.3,51.3,64.9,53.6,44.3,98,75,49,30.28,30.03,7,2,9,0.00
2014-5-14,69.2,59.0,50.7,62.3,54.4,44.9,98,85,73,30.32,30.21,4,1,8,0.00
2014-5-15,80.1,68.0,57.8,71.1,64.0,56.6,99,88,69,30.23,30.04,7,2,17,0.01
2014-5-16,69.0,65.2,55.9,66.8,63.3,54.8,98,94,88,30.04,29.80,6,3,16,1.65
2014-5-17,64.9,56.6,47.0,54.4,47.4,41.5,98,75,43,30.15,29.89,4,1,7,0.01
2014-5-18,63.9,53.2,40.9,47.9,42.3,36.2,97,70,40,30.22,30.14,4,1,7,0.00
2014-5-19,69.8,55.3,38.2,46.0,41.3,36.9,98,64,33,30.26,30.13,5,1,8,0.00
2014-5-20,76.0,60.6,42.5,55.8,47.2,40.9,97,66,34,30.19,30.01,4,1,6,0.01
2014-5-21,68.3,61.4,56.6,60.2,57.2,53.9,97,87,61,30.06,29.91,2,0,6,0.04
2014-5-22,71.2,62.6,59.2,66.8,61.4,58.1,98,96,83,29.91,29.78,2,0,5,2.09
2014-5-23,70.9,61.6,54.9,61.9,55.4,52.2,98,82,53,29.99,29.84,3,1,8,0.15
2014-5-24,71.7,60.8,53.3,59.7,54.7,50.5,95,81,55,30.11,29.97,3,1,7,0.05
2014-5-25,79.6,63.1,47.8,60.1,52.0,47.0,100,72,34,30.14,30.05,3,0,6,0.00
2014-5-26,84.4,68.4,51.6,60.7,55.2,49.6,95,67,36,30.11,29.94,5,1,12,0.00
2014-5-27,84.0,69.0,57.7,68.8,62.0,55.7,97,80,53,29.95,29.82,7,1,7,0.08
2014-5-28,65.6,60.1,54.0,65.2,58.8,50.5,99,96,88,30.16,29.81,4,1,9,0.07
2014-5-29,58.6,54.8,51.7,52.9,50.2,47.3,92,84,76,30.25,30.16,2,0,5,0.00
2014-5-30,74.3,62.5,53.1,58.1,54.0,50.5,95,76,49,30.18,30.01,2,0,8,0.00
2014-5-31,73.2,62.8,50.5,53.8,49.7,42.9,94,66,35,30.31,30.10,4,1,7,0.00
2014-6-1,74.8,61.4,45.4,55.3,49.6,44.1,98,69,35,30.38,30.25,2,0,6,0.00
2014-6-2,79.4,64.7,46.0,60.7,52.7,44.1,97,68,44,30.29,30.05,3,1,8,0.00
2014-6-3,87.0,69.6,56.9,72.4,64.0,55.3,97,84,52,30.06,29.82,6,0,9,0.17
2014-6-4,83.4,71.2,59.6,65.8,60.5,53.9,98,72,44,29.87,29.75,2,0,9,0.04
2014-6-5,75.2,64.7,59.0,63.5,58.2,53.5,97,81,47,29.84,29.66,3,1,8,0.11
2014-6-6,73.4,64.5,55.1,56.0,53.5,51.2,91,69,50,29.99,29.82,3,1,10,0.00
2014-6-7,79.9,65.8,50.2,60.9,55.6,49.1,98,73,44,30.04,29.94,2,0,5,0.00
2014-6-8,83.2,69.4,53.2,63.6,58.0,51.9,98,70,41,29.98,29.87,2,0,7,0.00
2014-6-9,74.3,66.9,62.1,69.9,64.4,57.0,98,92,67,29.95,29.89,1,0,3,0.40
2014-6-10,78.4,70.3,65.4,72.7,68.3,64.8,99,94,80,29.98,29.91,2,0,5,0.01
2014-6-11,69.1,64.1,59.6,67.6,62.3,58.7,97,94,88,30.11,29.98,4,2,13,0.02
2014-6-12,69.9,64.3,59.2,69.6,63.8,58.3,99,98,97,30.10,29.91,2,1,7,0.32
2014-6-13,82.0,71.0,67.5,74.1,69.1,66.8,100,94,68,29.91,29.74,4,0,6,1.04
2014-6-14,71.8,65.5,53.3,66.8,58.4,50.4,98,79,60,30.09,29.81,4,1,12,0.01
2014-6-15,78.2,64.9,50.3,60.4,55.6,48.9,97,74,48,30.17,30.07,3,1,6,0.00
2014-6-16,85.5,70.5,52.4,67.6,60.1,51.3,98,73,42,30.18,30.03,2,0,4,0.00
2014-6-17,88.9,76.9,64.7,72.8,68.5,63.5,98,77,50,30.11,29.91,2,0,5,0.03
2014-6-18,89.4,81.2,71.2,71.7,68.0,61.3,90,66,45,29.98,29.85,4,1,9,0.00
2014-6-19,71.6,68.8,62.8,68.4,66.8,61.6,98,93,83,30.04,29.91,3,0,4,1.05
2014-6-20,78.4,67.9,56.5,62.5,54.9,50.3,97,66,41,30.05,29.92,2,0,7,0.00
2014-6-21,79.4,68.4,59.2,62.2,56.9,50.4,89,68,47,29.98,29.87,2,0,7,0.00
2014-6-22,76.5,67.0,57.6,66.0,60.7,56.1,97,81,60,30.05,29.92,4,0,6,0.00
2014-6-23,80.8,69.3,58.2,66.5,60.7,56.7,97,76,53,30.16,30.05,3,0,7,0.00
2014-6-24,84.5,71.8,56.8,65.0,60.5,55.1,96,70,45,30.17,30.01,3,1,12,0.00
2014-6-25,87.5,75.9,64.5,75.2,70.0,60.9,97,83,58,30.04,29.83,3,1,8,0.38
2014-6-26,81.6,73.9,67.8,70.6,68.0,65.9,98,83,60,29.98,29.84,3,1,11,0.28
2014-6-27,80.4,72.3,63.4,70.1,65.3,55.9,94,80,59,30.23,29.98,3,1,6,0.00
2014-6-28,81.8,70.5,58.0,66.6,61.4,56.3,97,75,53,30.30,30.21,2,0,3,0.00
2014-6-29,84.1,72.3,60.6,67.6,62.8,59.0,97,74,48,30.27,30.12,2,0,5,0.00
2014-6-30,85.5,73.3,60.4,70.5,65.1,58.6,96,77,51,30.14,29.96,3,0,7,0.00
2014-7-1,90.2,78.8,65.9,74.3,70.2,64.6,97,77,56,29.98,29.83,4,1,10,0.00
2014-7-2,93.2,80.6,71.0,79.3,74.0,69.2,97,82,59,29.94,29.80,4,1,9,0.24
2014-7-3,88.4,77.1,69.7,78.1,73.2,68.5,99,89,67,30.00,29.88,5,0,18,0.14
2014-7-4,73.1,68.2,62.7,69.2,61.7,50.9,98,81,52,30.11,29.95,4,1,13,0.04
2014-7-5,79.5,67.7,55.6,60.1,53.9,50.6,88,64,38,30.22,30.11,4,1,8,0.00
2014-7-6,84.5,69.6,53.4,64.5,58.1,52.0,97,71,38,30.14,29.96,5,1,8,0.00
2014-7-7,89.5,78.9,68.6,70.3,67.2,64.0,90,69,50,29.96,29.77,5,1,13,0.00
2014-7-8,92.5,78.4,67.1,76.0,68.8,65.0,95,75,47,29.85,29.67,6,1,16,0.12
2014-7-9,86.8,75.2,64.0,70.8,67.1,62.8,98,78,51,29.97,29.81,3,0,6,0.00
2014-7-10,83.0,74.0,65.9,68.5,65.9,63.8,95,77,56,30.15,29.97,2,0,7,0.00
2014-7-11,85.2,74.0,63.3,66.9,64.0,61.1,97,73,47,30.23,30.13,3,0,6,0.00
2014-7-12,86.5,74.4,61.3,69.9,65.0,59.9,97,75,51,30.25,30.12,2,0,5,0.00
2014-7-13,86.8,77.5,68.3,75.7,70.7,65.4,95,80,62,30.14,29.89,3,1,7,0.33
2014-7-14,83.5,73.9,68.3,76.3,71.7,67.4,98,93,73,29.95,29.81,2,0,5,1.30
2014-7-15,85.1,75.4,70.9,76.8,72.9,70.3,99,93,69,29.85,29.72,2,0,8,0.19
2014-7-16,79.8,71.6,62.2,70.7,63.8,58.4,98,79,49,29.92,29.76,2,0,8,0.02
2014-7-17,80.5,68.6,57.5,63.1,58.6,55.4,98,73,46,30.14,29.91,3,1,7,0.00
2014-7-18,60.3,56.4,54.4,59.4,55.0,53.3,98,95,91,30.25,30.14,0,0,5,0.00
2014-7-20,78.4,70.2,63.0,65.8,62.8,60.6,94,79,60,30.17,30.11,3,1,5,0.01
2014-7-21,82.7,70.5,58.5,68.5,63.4,57.4,98,80,55,30.22,30.15,2,0,7,0.00
2014-7-22,85.9,74.2,61.0,73.3,66.9,59.6,97,79,60,30.21,30.07,2,0,6,0.00
2014-7-23,90.0,76.3,64.2,76.2,69.6,62.5,97,81,59,30.07,29.78,5,1,8,0.56
2014-7-24,79.4,71.0,64.8,69.9,63.1,56.3,98,78,51,29.94,29.84,2,0,4,0.01
2014-7-25,80.7,69.1,55.7,62.4,58.0,52.7,93,70,42,30.06,29.94,2,0,4,0.00
2014-7-26,78.9,68.5,58.3,70.2,64.4,56.7,97,87,71,30.03,29.90,3,0,5,0.02
2014-7-27,86.2,76.2,66.1,73.6,69.6,64.9,98,82,58,29.92,29.65,3,0,7,0.62
2014-7-28,79.9,71.3,65.0,68.9,64.4,58.7,98,81,54,29.77,29.54,5,2,11,0.17
2014-7-29,72.4,65.0,55.8,59.6,57.0,54.3,96,77,55,30.00,29.76,2,0,5,0.00
2014-7-30,77.9,65.3,52.8,60.8,56.0,51.4,97,75,43,30.07,30.00,2,0,5,0.00
2014-7-31,82.0,68.3,54.7,66.3,60.7,53.6,98,79,52,30.16,30.07,2,0,10,0.00
2014-8-1,80.8,68.8,61.8,72.2,65.7,60.6,98,91,65,30.22,30.15,4,0,9,0.11
2014-8-2,74.2,68.3,63.8,67.9,65.5,63.0,98,91,77,30.20,30.09,3,0,8,0.40
2014-8-3,72.8,67.9,64.2,67.7,65.7,63.3,98,93,81,30.15,30.05,2,0,4,0.11
2014-8-4,80.2,71.3,63.9,69.1,65.6,63.1,99,84,60,30.10,30.04,2,0,5,0.00
2014-8-5,87.3,73.1,60.2,69.5,64.1,59.1,98,76,44,30.07,29.93,1,0,3,0.00
2014-8-6,80.3,69.4,60.1,67.1,62.8,58.7,97,81,55,29.94,29.87,2,0,6,0.00
2014-8-7,80.5,68.6,55.5,63.3,58.1,53.2,97,72,43,30.06,29.93,3,0,8,0.00
2014-8-8,79.5,66.3,53.0,63.4,56.7,50.8,95,74,45,30.14,30.06,3,0,5,0.00
2014-8-9,82.9,68.2,54.6,63.2,57.2,53.2,98,72,38,30.15,30.08,2,0,4,0.00
2014-8-10,84.5,69.1,55.4,65.3,59.3,54.0,98,75,39,30.16,30.08,2,0,6,0.00
2014-8-11,83.4,70.9,57.8,67.4,60.4,56.4,97,73,41,30.15,30.08,4,1,8,0.00
2014-8-12,75.9,68.8,64.4,70.6,66.7,63.2,98,93,80,30.08,29.81,4,1,8,0.35
2014-8-13,80.8,72.2,66.3,70.8,66.0,57.5,99,82,59,29.84,29.70,4,1,10,0.07
2014-8-14,76.1,66.0,54.8,60.2,55.7,52.5,94,72,49,29.93,29.84,4,1,10,0.00
2014-8-15,72.1,61.4,49.2,56.4,52.8,48.1,98,76,50,30.01,29.92,4,1,8,0.00
2014-8-16,78.0,63.9,50.1,59.4,53.7,48.9,98,73,43,30.04,29.94,3,0,8,0.00
2014-8-17,80.5,66.4,55.7,66.4,59.6,53.5,97,81,52,29.95,29.85,3,1,8,0.02
2014-8-18,80.1,66.3,52.4,62.1,57.3,51.0,98,76,49,29.96,29.83,3,1,8,0.00
2014-8-19,83.1,69.2,55.0,66.8,60.8,53.7,97,77,45,29.95,29.87,2,0,8,0.00
2014-8-20,84.0,72.9,63.7,70.4,64.7,61.9,96,77,53,30.04,29.94,3,0,8,0.00
2014-8-21,81.8,73.2,63.8,70.7,66.1,62.1,96,80,58,30.07,29.98,2,0,8,0.69
2014-8-22,74.2,68.7,65.1,69.0,66.0,61.8,98,91,80,30.06,29.99,3,0,8,0.71
2014-8-23,70.0,65.1,61.6,66.1,63.1,60.7,97,93,80,30.14,30.03,3,0,8,0.31
2014-8-24,79.3,67.1,58.6,64.1,61.0,57.8,100,83,52,30.17,30.11,2,0,8,0.00
2014-8-25,82.8,67.4,53.9,65.6,60.3,52.8,99,80,50,30.20,30.13,2,0,8,0.00
2014-8-26,84.8,70.4,57.8,68.6,63.2,56.7,98,80,49,30.19,30.08,1,0,8,0.00
2014-8-27,87.7,73.4,60.0,72.5,66.0,58.9,98,80,50,30.10,29.88,2,0,8,0.00
2014-8-28,76.0,70.2,60.9,69.6,58.3,51.1,94,67,47,30.10,29.88,5,1,8,0.00
2014-8-29,76.7,64.0,50.9,60.7,54.4,48.9,96,73,46,30.26,30.10,2,0,8,0.00
2014-8-30,76.2,65.9,53.7,66.7,60.7,52.6,100,85,66,30.29,30.16,2,0,8,0.00
2014-8-31,89.1,73.9,66.0,75.4,70.3,63.2,98,89,60,30.17,29.99,3,0,8,0.41
2014-9-1,84.3,75.8,70.1,75.7,72.5,69.5,99,90,70,30.03,29.93,2,0,8,0.03
2014-9-2,88.6,77.9,67.9,74.7,70.7,67.0,99,80,55,29.96,29.83,3,1,12,0.00
2014-9-3,81.5,72.4,62.7,68.9,64.0,60.1,95,77,49,30.14,29.88,2,0,8,0.00
2014-9-4,85.7,70.6,57.5,67.2,61.7,56.4,98,77,44,30.21,30.11,2,0,8,0.00
2014-9-5,86.3,74.1,63.0,75.6,69.8,61.0,97,87,65,30.19,30.03,2,0,8,0.00
2014-9-6,89.4,74.6,66.1,75.5,71.2,64.9,99,90,59,30.03,29.86,3,0,9,0.40
2014-9-7,76.7,66.4,59.5,64.7,59.4,54.4,98,80,47,30.20,29.97,3,0,8,0.00
2014-9-8,73.8,63.9,56.1,63.9,58.1,54.1,95,82,57,30.31,30.19,5,1,9,0.00
2014-9-9,73.4,65.5,58.3,63.4,60.0,56.0,94,83,68,30.27,30.15,5,1,12,0.00
2014-9-10,78.6,68.8,62.7,64.9,61.4,58.8,93,79,52,30.15,30.02,2,0,8,0.00
2014-9-11,82.8,72.1,61.4,72.1,67.2,60.0,97,85,68,30.03,29.84,3,1,9,0.00
2014-9-12,72.9,64.8,55.9,63.1,55.1,52.2,89,72,53,30.18,29.97,3,0,8,0.00
2014-9-13,64.8,59.3,53.7,63.6,56.6,50.9,97,91,82,30.20,30.10,2,0,8,0.52
2014-9-14,66.3,54.8,45.1,56.1,49.5,44.3,98,84,55,30.32,30.20,3,0,8,0.00
2014-9-15,68.6,55.6,43.6,55.0,48.0,42.3,99,78,48,30.27,30.09,2,0,8,0.00
2014-9-16,69.3,59.0,50.4,59.5,54.2,49.0,98,85,60,30.09,29.98,2,0,8,0.10
2014-9-17,70.6,56.2,44.1,54.5,48.8,43.0,98,79,47,30.09,29.98,2,0,8,0.00
2014-9-18,71.9,57.3,44.2,57.7,51.1,43.1,98,82,52,30.13,29.98,2,0,8,0.00
2014-9-19,66.7,57.4,50.6,53.7,51.0,48.9,95,80,57,30.37,30.13,4,1,8,0.00
2014-9-20,75.9,62.3,50.0,62.4,56.8,48.6,97,84,57,30.34,30.07,4,1,11,0.00
2014-9-21,76.8,68.3,60.3,67.8,63.8,59.2,97,87,62,30.07,29.63,2,0,8,0.00
2014-9-22,68.2,61.9,50.0,63.7,51.9,43.4,93,71,50,30.22,29.67,5,1,15,0.00
2014-9-23,68.6,53.9,40.1,51.4,45.1,38.5,97,75,45,30.42,30.22,2,0,8,0.00
2014-9-24,69.4,57.6,44.7,58.4,52.2,43.4,98,84,61,30.55,30.42,5,1,9,0.00
2014-9-25,60.4,58.1,54.0,59.3,56.5,53.2,97,94,87,30.45,30.24,3,1,13,0.59
2014-9-26,73.2,58.9,48.3,58.9,53.0,47.5,99,83,52,30.26,30.18,2,0,9,0.00
2014-9-27,78.5,61.6,47.5,62.4,55.0,46.4,99,82,48,30.25,30.17,2,0,8,0.00
2014-9-28,81.0,63.7,49.6,62.9,56.8,48.5,99,81,47,30.20,30.04,2,0,8,0.00
2014-9-29,76.0,64.4,56.9,64.3,60.3,55.8,98,88,56,30.04,29.91,2,0,8,0.00
2014-9-30,74.4,64.1,57.6,62.2,58.3,54.5,98,84,50,29.98,29.90,5,0,8,0.00
2014-10-1,68.2,62.8,58.1,60.3,58.5,56.6,97,86,74,30.09,29.98,2,0,7,0.00
2014-10-2,67.5,62.6,59.0,59.3,57.9,56.6,94,85,71,30.16,30.09,2,0,6,0.00
2014-10-3,69.3,61.7,55.8,58.7,56.5,54.4,97,84,66,30.13,29.83,4,1,8,0.00
2014-10-4,66.5,60.1,47.1,65.1,54.2,34.7,98,82,58,29.83,29.56,4,2,9,0.54
2014-10-5,57.6,46.4,35.3,43.0,37.6,33.2,96,73,51,30.02,29.78,4,1,10,0.00
2014-10-6,69.4,53.0,36.6,52.8,44.2,35.4,98,76,43,30.08,30.00,5,2,11,0.00
2014-10-7,68.8,62.4,55.5,60.1,55.4,52.8,94,79,61,30.05,29.90,4,1,11,0.05
2014-10-8,69.9,61.7,49.9,61.7,53.5,45.3,97,77,48,29.99,29.82,6,2,10,0.33
2014-10-9,68.6,53.0,40.1,47.8,42.9,38.8,100,73,38,30.10,29.98,5,1,8,0.00
2014-10-10,60.1,51.3,41.1,49.8,44.8,39.8,97,80,53,30.16,30.08,1,0,2,0.00
2014-10-11,53.5,50.3,43.4,50.7,48.8,42.3,97,94,86,30.20,30.05,1,0,5,0.63
2014-10-12,59.8,46.9,37.7,46.4,41.5,36.9,100,84,49,30.34,30.19,2,0,5,0.00
2014-10-13,62.1,54.2,45.3,61.3,52.1,44.2,98,91,82,30.35,30.24,2,0,7,0.01
2014-10-14,76.3,67.5,58.1,66.1,63.0,57.5,100,86,68,30.24,30.08,5,2,9,0.01
2014-10-15,75.5,69.3,66.3,70.6,67.1,64.5,98,93,82,30.08,29.79,6,2,14,0.66
2014-10-16,68.8,63.1,55.1,68.2,59.9,53.4,98,90,70,29.79,29.70,4,1,10,0.27
2014-10-17,70.0,60.0,53.2,56.1,54.1,51.6,98,82,56,29.79,29.69,5,1,7,0.00
2014-10-18,66.7,57.3,49.8,56.2,48.8,42.6,98,75,52,29.79,29.61,5,2,10,0.00
2014-10-19,53.3,47.8,35.0,44.5,36.3,29.6,90,66,44,30.10,29.78,6,2,10,0.00
2014-10-20,60.0,43.5,29.5,44.0,36.7,28.2,97,79,49,30.15,29.97,4,1,9,0.00
2014-10-21,66.7,54.5,45.1,53.4,49.1,42.9,96,83,54,29.97,29.82,2,0,4,0.01
2014-10-22,54.4,52.6,50.8,52.6,50.8,49.1,96,94,90,29.93,29.80,3,1,7,0.59
2014-10-23,54.6,51.0,48.4,49.0,47.0,45.2,95,86,74,29.86,29.76,5,2,15,0.21
2014-10-24,67.4,55.7,44.4,48.5,46.5,42.1,93,73,47,29.89,29.80,5,1,11,0.00
2014-10-25,66.9,51.6,35.0,50.1,43.0,33.7,100,75,48,29.93,29.61,5,1,10,0.00
2014-10-26,63.5,54.9,40.8,50.1,41.8,38.0,92,63,42,29.90,29.60,7,2,11,0.00
2014-10-27,64.1,49.3,37.1,44.3,39.6,34.7,95,72,42,30.08,29.90,4,1,9,0.00
2014-10-28,71.2,53.0,40.0,56.8,47.4,38.1,97,83,57,30.06,29.92,3,0,6,0.00
2014-10-29,65.6,52.5,43.1,60.1,48.5,41.8,100,88,50,29.99,29.90,5,1,10,0.09
2014-10-30,57.0,47.0,35.5,46.4,41.1,32.8,98,82,52,30.06,29.97,3,0,9,0.01
2014-10-31,50.3,41.2,29.3,41.6,35.6,28.2,98,82,64,30.05,29.85,2,0,4,0.00
2014-11-1,49.1,44.6,42.0,46.2,40.6,35.8,96,86,67,29.87,29.79,4,2,11,0.89
2014-11-2,47.6,42.2,37.5,37.3,28.5,19.9,83,59,42,30.15,29.83,8,4,20,0.01
2014-11-3,59.0,44.8,30.2,35.7,29.0,19.8,87,58,23,30.23,30.14,7,2,9,0.00
2014-11-4,69.3,55.8,41.8,44.4,35.9,27.0,83,51,21,30.21,30.04,5,1,8,0.00
2014-11-5,61.3,50.3,42.6,48.8,41.9,36.8,93,75,41,30.17,30.04,4,0,9,0.00
2014-11-6,49.2,47.1,45.5,48.5,45.9,41.3,98,96,84,30.15,29.64,2,0,4,0.46
2014-11-7,51.0,44.2,35.5,46.3,36.9,25.8,98,76,50,30.01,29.63,7,3,13,0.01
2014-11-8,47.4,37.7,27.0,34.6,29.8,24.6,93,74,52,30.08,29.93,5,1,11,0.00
2014-11-9,55.4,42.5,31.2,40.0,35.4,29.4,95,78,46,30.05,29.92,6,1,10,0.00
2014-11-10,60.2,41.4,29.1,41.8,34.9,27.8,97,81,47,30.20,30.05,3,0,5,0.00
2014-11-11,66.8,50.5,32.3,58.0,46.6,31.0,97,87,72,30.15,29.92,4,0,7,0.00
2014-11-12,65.4,52.8,37.2,58.3,46.2,32.6,98,80,46,30.10,29.90,4,1,11,0.00
2014-11-13,44.6,36.7,30.1,34.9,31.1,27.7,96,82,55,30.15,30.03,2,0,4,0.12
2014-11-14,39.7,33.3,24.9,32.9,26.4,21.4,97,77,49,30.24,30.01,6,2,12,0.14
2014-11-15,41.9,30.0,22.7,26.7,22.3,19.1,95,76,40,30.40,30.24,4,1,9,0.01
2014-11-16,42.0,34.1,23.0,35.5,28.4,20.6,94,81,57,30.41,30.08,2,0,6,0.06
2014-11-17,45.8,40.9,37.1,45.3,39.3,33.4,98,94,75,30.09,29.52,5,1,9,1.26
2014-11-18,40.6,27.4,22.0,33.6,11.2,5.5,76,50,38,30.18,29.68,10,6,17,0.00
2014-11-19,30.8,25.1,19.0,19.1,11.3,7.4,82,56,42,30.33,30.06,6,3,14,0.00
2014-11-20,46.0,31.7,19.9,29.7,21.0,13.1,90,67,47,30.10,29.89,8,2,14,0.00
2014-11-21,35.2,27.6,19.2,17.8,13.7,11.4,87,57,39,30.54,30.10,8,3,14,0.00
2014-11-22,42.7,31.0,14.9,26.3,18.5,12.2,92,63,40,30.54,30.24,8,2,14,0.00
2014-11-23,55.5,42.2,34.9,43.7,30.3,25.2,91,64,37,30.26,29.95,4,1,14,0.00
2014-11-24,70.0,62.9,46.7,62.3,57.9,44.5,98,84,68,29.94,29.59,7,4,17,0.61
2014-11-25,65.6,49.8,35.5,60.0,39.8,32.5,92,70,47,30.19,29.76,7,2,14,0.00
2014-11-26,45.3,36.0,32.8,37.0,33.6,31.3,96,91,64,30.22,29.83,3,1,14,0.63
2014-11-27,36.5,33.1,26.3,32.2,30.2,24.6,95,89,77,30.13,29.91,5,1,14,0.33
2014-11-28,35.0,28.5,21.4,27.5,22.2,17.5,96,79,50,30.31,30.12,8,2,15,0.02
2014-11-29,31.8,25.9,17.6,26.8,21.5,15.7,94,84,70,30.39,30.22,3,0,14,0.01
2014-11-30,45.9,38.0,28.4,41.3,34.4,26.7,96,87,75,30.22,30.09,4,0,14,0.31
2014-12-1,64.1,46.1,34.6,54.0,41.1,26.0,98,84,61,30.49,30.11,4,1,14,0.14
2014-12-2,40.9,35.7,32.3,40.0,29.7,23.1,97,80,62,30.62,30.28,3,1,14,0.32
2014-12-3,44.5,41.0,36.6,43.7,38.9,27.8,98,92,68,30.28,30.00,8,2,14,0.22
2014-12-4,42.5,33.8,26.4,30.6,27.7,24.9,96,80,55,30.53,30.27,6,1,9,0.00
2014-12-5,40.6,35.2,28.3,37.7,31.0,23.3,96,85,71,30.58,30.36,2,0,8,0.20
2014-12-6,44.5,41.1,37.5,44.0,40.4,36.5,100,97,94,30.37,30.09,4,0,10,0.96
2014-12-7,45.1,36.9,28.7,37.5,25.4,15.3,94,64,42,30.63,30.23,5,2,10,0.00
2014-12-8,32.9,28.0,22.7,29.7,18.3,6.3,88,67,45,30.68,30.28,4,2,8,0.01
2014-12-9,41.8,37.5,32.5,40.3,35.7,29.7,96,93,86,30.30,29.76,6,3,11,0.99
2014-12-10,40.3,36.6,30.1,36.2,31.0,24.9,89,80,68,29.77,29.69,9,6,15,0.00
2014-12-11,33.8,31.7,29.7,30.7,28.1,24.6,94,86,73,29.94,29.72,8,4,13,0.03
2014-12-12,36.8,34.1,31.1,29.8,27.2,24.4,95,76,69,30.06,29.93,6,3,11,0.01
2014-12-13,39.3,36.0,32.3,32.5,29.4,25.9,85,77,73,30.06,29.95,7,4,11,0.00
2014-12-14,44.6,40.3,36.0,36.7,33.6,29.6,83,77,71,30.02,29.91,6,3,13,0.00
2014-12-15,46.3,38.3,28.3,37.5,33.3,26.8,95,82,70,30.13,30.01,4,1,8,0.00
2014-12-16,48.3,38.4,26.8,44.5,36.9,25.5,98,95,83,30.12,29.86,4,0,8,0.20
2014-12-17,49.8,42.4,34.7,44.0,36.7,26.0,98,81,63,29.98,29.84,8,3,16,0.01
2014-12-18,38.7,35.4,32.2,29.0,26.2,23.7,81,69,61,30.08,29.97,7,4,12,0.00
2014-12-19,39.6,34.9,30.2,29.5,26.4,22.5,79,71,58,30.22,30.02,6,3,9,0.00
2014-12-20,33.4,31.5,30.1,25.4,24.2,22.5,81,74,67,30.33,30.21,2,0,8,0.00
2014-12-21,36.4,30.7,26.6,27.7,25.1,23.8,90,80,63,30.37,30.30,5,1,8,0.00
2014-12-22,42.3,36.0,28.8,39.2,32.8,25.7,96,88,79,30.36,30.13,2,0,8,0.03
2014-12-23,48.0,45.5,40.4,47.2,44.7,39.4,98,97,96,30.14,30.06,6,2,11,0.15
2014-12-24,61.4,49.6,44.9,60.8,49.2,44.4,99,98,98,30.08,29.54,5,2,9,0.68
2014-12-25,62.1,48.9,35.6,61.4,40.7,31.2,99,74,55,30.19,29.53,10,5,19,0.08
2014-12-26,48.9,35.0,27.5,34.6,29.9,26.2,97,83,56,30.32,30.18,5,1,8,0.00
2014-12-27,55.3,37.0,27.0,39.5,31.7,25.8,98,84,48,30.31,30.10,4,0,8,0.00
2014-12-28,52.2,43.4,33.5,45.5,39.6,31.7,96,87,73,30.10,29.91,4,1,8,0.02
2014-12-29,43.2,35.7,26.0,34.7,26.4,21.2,87,70,42,30.28,30.10,4,1,8,0.00
2014-12-30,35.2,27.4,19.1,23.7,19.9,15.8,92,75,46,30.44,30.28,5,1,8,0.00
2014-12-31,31.6,22.2,15.1,18.0,13.7,9.5,98,72,41,30.43,30.22,7,2,12,0.00
2015-1-1,40.5,25.9,14.1,21.6,16.1,11.7,91,70,37,30.22,30.02,9,2,16,0.00
2015-1-2,41.1,27.6,19.9,24.7,21.2,17.8,94,79,50,30.47,30.07,8,1,12,0.00